Location: Seattle
(47.6064°N, 122.3308°W)
Time: 02:36:46
(UTC-08:00)

SR - Pass Details

Date: 26 November 2020
Orbit: 575 x 880 km, 66.7° (Epoch: 19 January)

Event Time Altitude Azimuth Distance (km) Brightness Sun altitude
Exits shadow 04:32:13 18° 177° (S) 1,932 ? -29.5°
Drops below altitude 10° 04:33:42 10° 171° (S) 2,456 ? -29.3°
Sets 04:36:19 0° 166° (SSE) 3,417 ? -28.8°
